,,PA_Meas_PMT16A,,PR_Meas_QMR101_102,,RH_Meas_QMH101,,SR_Meas_QMS101,,TA_Meas_QMH101,,GenWind,,GenWind,
time,status,PA,status,PR,status,RH,status,SR,status,TA,status,DirAvg,status,SpdAvg,
2010-12-11, 00:00:04,VALID,917.18,VALID,0,VALID,95.5595,VALID,0,VALID,19.1763,VALID,31,VALID,0.674609,
2010-12-11, 00:01:04,VALID,917.2,VALID,0,VALID,95.6967,VALID,0,VALID,19.1763,VALID,31,VALID,0.375,
2010-12-11, 00:02:04,VALID,917.168,VALID,0,VALID,95.8187,VALID,0,VALID,19.1958,VALID,31,VALID,0.579297,
2010-12-11, 00:03:04,VALID,917.179,VALID,0,VALID,95.8263,VALID,0,VALID,19.2348,VALID,31,VALID,0.453125,
2010-12-11, 00:04:04,VALID,917.158,VALID,0,VALID,95.8416,VALID,0,VALID,19.2153,VALID,31,VALID,0.603906,
2010-12-11, 00:05:04,VALID,917.178,VALID,0,VALID,95.8111,VALID,0,VALID,19.2153,VALID,31,VALID,0.492188,
2010-12-11, 00:06:04,VALID,917.151,VALID,0,VALID,95.895,VALID,0,VALID,19.2348,VALID,31,VALID,0.174609,
2010-12-11, 00:07:04,VALID,917.158,VALID,0,VALID,95.9178,VALID,0,VALID,19.2543,VALID,31,VALID,1.18398,
2010-12-11, 00:08:04,VALID,917.13,VALID,0,VALID,95.9178,VALID,0,VALID,19.2543,VALID,31,VALID,1.0375,
2010-12-11, 00:09:04,VALID,917.132,VALID,0,VALID,95.8263,VALID,0,VALID,19.2543,VALID,31,VALID,0.308203,
2010-12-11, 00:10:04,VALID,917.15,VALID,0,VALID,95.7882,VALID,0.107441,VALID,19.2753,VALID,31,VALID,0,
2010-12-11, 00:11:04,VALID,917.127,VALID,0,VALID,95.6815,VALID,0,VALID,19.2543,VALID,31,VALID,0.849219,
2010-12-11, 00:12:04,VALID,917.095,VALID,0,VALID,95.5824,VALID,0,VALID,19.2348,VALID,31,VALID,0.428125,
2010-12-11, 00:13:04,VALID,917.067,VALID,0,VALID,95.5367,VALID,0,VALID,19.2543,VALID,31,VALID,0.0210938,
2010-12-11, 00:14:04,VALID,917.055,VALID,0,VALID,95.5138,VALID,0.107441,VALID,19.2543,VALID,31,VALID,0.256641,
2010-12-11, 00:15:04,VALID,917.061,VALID,0,VALID,95.5443,VALID,0,VALID,19.2543,VALID,31,VALID,0.173438,
2010-12-11, 00:16:04,VALID,917.035,VALID,0,VALID,95.6357,VALID,0,VALID,19.2738,VALID,31,VALID,0.569141,
2010-12-11, 00:17:04,VALID,917.056,VALID,0,VALID,95.5595,VALID,0,VALID,19.2139,VALID,31,VALID,0.00585938,
2010-12-11, 00:18:04,VALID,917.084,VALID,0,VALID,95.5824,VALID,0,VALID,19.2153,VALID,31,VALID,0,
2010-12-11, 00:19:04,VALID,917.09,VALID,0,VALID,95.6586,VALID,0,VALID,19.2543,VALID,235,VALID,0.517969,
2010-12-11, 00:20:04,VALID,917.064,VALID,0,VALID,95.6434,VALID,0.107441,VALID,19.2738,VALID,235,VALID,0.331641,
2010-12-11, 00:21:04,VALID,917.076,VALID,0,VALID,95.1631,VALID,0,VALID,19.2153,VALID,235,VALID,0.257813,
2010-12-11, 00:22:04,VALID,917.117,VALID,0,VALID,95.0488,VALID,0,VALID,19.1749,VALID,235,VALID,0.0472656,
2010-12-11, 00:23:04,VALID,917.077,VALID,0,VALID,95.2775,VALID,0.107441,VALID,19.2348,VALID,235,VALID,0.839063,
2010-12-11, 00:24:04,VALID,917.073,VALID,0,VALID,95.3384,VALID,0.107441,VALID,19.2348,VALID,237,VALID,0.742188,
2010-12-11, 00:25:04,VALID,917.063,VALID,0,VALID,95.4985,VALID,0,VALID,19.3128,VALID,326,VALID,0.678125,
2010-12-11, 00:26:04,VALID,917.062,VALID,0,VALID,95.2088,VALID,0,VALID,19.3518,VALID,326,VALID,0.594141,
2010-12-11, 00:27:04,VALID,917.055,VALID,0,VALID,94.9268,VALID,0,VALID,19.4103,VALID,18,VALID,0.244922,
2010-12-11, 00:28:04,VALID,917.037,VALID,0,VALID,94.5609,VALID,0,VALID,19.3908,VALID,18,VALID,0.501953,
2010-12-11, 00:29:04,VALID,917.012,VALID,0,VALID,94.5075,VALID,0.107441,VALID,19.4103,VALID,18,VALID,0.867969,
2010-12-11, 00:30:04,VALID,916.949,VALID,0,VALID,94.6676,VALID,0,VALID,19.4103,VALID,39,VALID,1.75195,
2010-12-11, 00:31:04,VALID,916.984,VALID,0,VALID,94.5075,VALID,0,VALID,19.4298,VALID,45,VALID,0.356641,
2010-12-11, 00:32:04,VALID,916.959,VALID,0,VALID,94.4694,VALID,0,VALID,19.4298,VALID,45,VALID,0.763281,
2010-12-11, 00:33:04,VALID,916.958,VALID,0,VALID,94.3931,VALID,0,VALID,19.4493,VALID,45,VALID,0.0640625,
2010-12-11, 00:34:04,VALID,916.971,VALID,0,VALID,94.294,VALID,0,VALID,19.4313,VALID,45,VALID,0.096875,
2010-12-11, 00:35:04,VALID,916.942,VALID,0,VALID,94.2712,VALID,0,VALID,19.3713,VALID,45,VALID,0.0601562,
2010-12-11, 00:36:04,VALID,916.934,VALID,0,VALID,94.2788,VALID,0,VALID,19.3923,VALID,45,VALID,0.392969,
2010-12-11, 00:37:04,VALID,916.938,VALID,0,VALID,94.2254,VALID,0,VALID,19.3338,VALID,45,VALID,0.102344,
2010-12-11, 00:38:04,VALID,916.933,VALID,0,VALID,94.1797,VALID,0,VALID,19.2933,VALID,45,VALID,0.449219,
2010-12-11, 00:39:04,VALID,916.924,VALID,0,VALID,94.538,VALID,0,VALID,19.2738,VALID,45,VALID,0.207422,
2010-12-11, 00:40:04,VALID,916.916,VALID,0,VALID,94.7896,VALID,0,VALID,19.2738,VALID,45,VALID,0.0449219,
2010-12-11, 00:41:04,VALID,916.878,VALID,0,VALID,94.9192,VALID,0,VALID,19.2933,VALID,45,VALID,0.263672,
2010-12-11, 00:42:04,VALID,916.862,VALID,0,VALID,94.5151,VALID,0,VALID,19.2348,VALID,45,VALID,0.383984,
2010-12-11, 00:43:04,VALID,916.872,VALID,0,VALID,94.477,VALID,0,VALID,19.2153,VALID,45,VALID,0.078125,
2010-12-11, 00:44:04,VALID,916.8,VALID,0,VALID,94.6523,VALID,0,VALID,19.1749,VALID,45,VALID,0,
2010-12-11, 00:45:04,VALID,916.781,VALID,0,VALID,94.8277,VALID,0,VALID,19.2168,VALID,45,VALID,0.250391,
2010-12-11, 00:46:04,VALID,916.803,VALID,0,VALID,95.0716,VALID,0,VALID,19.2153,VALID,45,VALID,0.0671875,
2010-12-11, 00:47:04,VALID,916.76,VALID,0,VALID,94.8658,VALID,0,VALID,19.1973,VALID,45,VALID,0,
2010-12-11, 00:48:04,VALID,916.777,VALID,0,VALID,94.3017,VALID,0,VALID,19.1178,VALID,45,VALID,0,
2010-12-11, 00:49:04,VALID,916.793,VALID,0,VALID,94.1873,VALID,0,VALID,19.0398,VALID,45,VALID,0.657812,
2010-12-11, 00:50:04,VALID,916.812,VALID,0,VALID,94.538,VALID,0,VALID,19.0203,VALID,45,VALID,0.0511719,
2010-12-11, 00:51:04,VALID,916.837,VALID,0,VALID,94.8429,VALID,0,VALID,19.0203,VALID,45,VALID,0.292188,
2010-12-11, 00:52:04,VALID,916.815,VALID,0,VALID,95.2698,VALID,0,VALID,19.0593,VALID,45,VALID,0.221094,
2010-12-11, 00:53:04,VALID,916.801,VALID,0,VALID,95.4299,VALID,0.107441,VALID,19.0579,VALID,45,VALID,0,
2010-12-11, 00:54:04,VALID,916.828,VALID,0,VALID,95.6129,VALID,0,VALID,19.0983,VALID,45,VALID,0.45625,
2010-12-11, 00:55:04,VALID,916.818,VALID,0,VALID,95.6205,VALID,0.107441,VALID,19.0774,VALID,45,VALID,0,
2010-12-11, 00:56:04,VALID,916.813,VALID,0,VALID,95.5595,VALID,0,VALID,19.0774,VALID,45,VALID,0,
2010-12-11, 00:57:04,VALID,916.803,VALID,0,VALID,95.4757,VALID,0.107441,VALID,19.0593,VALID,45,VALID,0,
2010-12-11, 00:58:04,VALID,916.783,VALID,0,VALID,95.5519,VALID,0.107441,VALID,19.0579,VALID,45,VALID,0.159375,
2010-12-11, 00:59:04,VALID,916.748,VALID,0,VALID,95.6053,VALID,0.107441,VALID,19.0969,VALID,23,VALID,0.586328,
2010-12-11, 01:00:04,VALID,916.73,VALID,0,VALID,95.529,VALID,0,VALID,19.0788,VALID,23,VALID,0.30625,
2010-12-11, 01:01:04,VALID,916.749,VALID,0,VALID,95.3308,VALID,0,VALID,19.0593,VALID,23,VALID,0.560938,
2010-12-11, 01:02:04,VALID,916.703,VALID,0,VALID,95.5671,VALID,0,VALID,19.0788,VALID,23,VALID,1.52461,
2010-12-11, 01:03:04,VALID,916.67,VALID,0,VALID,95.6891,VALID,0,VALID,19.1178,VALID,23,VALID,1.49531,
2010-12-11, 01:04:04,VALID,916.68,VALID,0,VALID,95.9559,VALID,0,VALID,19.2168,VALID,358,VALID,0.659766,
2010-12-11, 01:05:04,VALID,916.729,VALID,0,VALID,95.9331,VALID,0,VALID,19.2153,VALID,358,VALID,0.779297,
2010-12-11, 01:06:04,VALID,916.731,VALID,0,VALID,95.7806,VALID,0,VALID,19.2153,VALID,358,VALID,1.01719,
2010-12-11, 01:07:04,VALID,916.684,VALID,0,VALID,95.8263,VALID,0,VALID,19.2558,VALID,358,VALID,1.35664,
2010-12-11, 01:08:04,VALID,916.643,VALID,0,VALID,95.8721,VALID,0,VALID,19.2543,VALID,23,VALID,1.46172,
2010-12-11, 01:09:04,VALID,916.656,VALID,0,VALID,95.7806,VALID,0,VALID,19.3143,VALID,18,VALID,1.15664,
2010-12-11, 01:10:04,VALID,916.615,VALID,0,VALID,95.8721,VALID,0,VALID,19.3533,VALID,354,VALID,0.9375,
2010-12-11, 01:11:04,VALID,916.67,VALID,0,VALID,95.712,VALID,0,VALID,19.3338,VALID,355,VALID,1.08789,
2010-12-11, 01:12:04,VALID,916.647,VALID,0,VALID,95.6357,VALID,0,VALID,19.3338,VALID,355,VALID,1.01523,
2010-12-11, 01:13:04,VALID,916.652,VALID,0,VALID,95.6739,VALID,0,VALID,19.3338,VALID,355,VALID,0.680469,
2010-12-11, 01:14:04,VALID,916.649,VALID,0,VALID,95.6357,VALID,0,VALID,19.3323,VALID,354,VALID,0.649609,
2010-12-11, 01:15:04,VALID,916.624,VALID,0,VALID,95.7806,VALID,0,VALID,19.3728,VALID,355,VALID,0.550781,
2010-12-11, 01:16:04,VALID,916.621,VALID,0,VALID,95.6739,VALID,0,VALID,19.3923,VALID,355,VALID,0.428125,
2010-12-11, 01:17:04,VALID,916.63,VALID,0,VALID,95.8416,VALID,0,VALID,19.3908,VALID,355,VALID,0.744922,
2010-12-11, 01:18:04,VALID,916.615,VALID,0,VALID,95.9331,VALID,0,VALID,19.4298,VALID,354,VALID,0.490234,
2010-12-11, 01:19:04,VALID,916.608,VALID,0,VALID,95.9483,VALID,0,VALID,19.4703,VALID,287,VALID,1.40937,
2010-12-11, 01:20:04,VALID,916.639,VALID,0,VALID,95.8645,VALID,0,VALID,19.5468,VALID,294,VALID,0.409375,
2010-12-11, 01:21:04,VALID,916.599,VALID,0,VALID,95.6129,VALID,0,VALID,19.5663,VALID,294,VALID,0.189063,
2010-12-11, 01:22:04,VALID,916.598,VALID,0,VALID,95.3308,VALID,0,VALID,19.6068,VALID,294,VALID,0.857422,
2010-12-11, 01:23:04,VALID,916.582,VALID,0,VALID,95.1936,VALID,0,VALID,19.6458,VALID,294,VALID,0.26875,
2010-12-11, 01:24:04,VALID,916.556,VALID,0,VALID,94.9192,VALID,0,VALID,19.6263,VALID,294,VALID,0.620313,
2010-12-11, 01:25:04,VALID,916.527,VALID,0,VALID,95.003,VALID,0,VALID,19.6263,VALID,331,VALID,1.24805,
2010-12-11, 01:26:04,VALID,916.539,VALID,0,VALID,95.0869,VALID,0,VALID,19.6458,VALID,27,VALID,0.98125,
2010-12-11, 01:27:04,VALID,916.569,VALID,0,VALID,95.064,VALID,0,VALID,19.6458,VALID,12,VALID,0.992188,
2010-12-11, 01:28:04,VALID,916.565,VALID,0,VALID,95.0335,VALID,0,VALID,19.6443,VALID,6,VALID,0.614453,
2010-12-11, 01:29:04,VALID,916.57,VALID,0,VALID,94.9115,VALID,0,VALID,19.6848,VALID,6,VALID,0.601563,
2010-12-11, 01:30:04,VALID,916.557,VALID,0,VALID,94.7438,VALID,0,VALID,19.6653,VALID,6,VALID,0.316797,
2010-12-11, 01:31:04,VALID,916.519,VALID,0,VALID,94.7972,VALID,0,VALID,19.6638,VALID,6,VALID,0.344531,
2010-12-11, 01:32:04,VALID,916.523,VALID,0,VALID,94.5456,VALID,0,VALID,19.6458,VALID,6,VALID,0.232422,
2010-12-11, 01:33:04,VALID,916.467,VALID,0,VALID,94.4313,VALID,0,VALID,19.5858,VALID,6,VALID,0,
2010-12-11, 01:34:04,VALID,916.473,VALID,0,VALID,94.4465,VALID,0,VALID,19.5468,VALID,6,VALID,0,
2010-12-11, 01:35:04,VALID,916.507,VALID,0,VALID,94.4389,VALID,0,VALID,19.5483,VALID,6,VALID,0,
2010-12-11, 01:36:04,VALID,916.521,VALID,0,VALID,94.4465,VALID,0,VALID,19.5093,VALID,6,VALID,0,
2010-12-11, 01:37:04,VALID,916.462,VALID,0,VALID,94.5532,VALID,0,VALID,19.4688,VALID,6,VALID,0,
2010-12-11, 01:38:04,VALID,916.432,VALID,0,VALID,94.7743,VALID,0,VALID,19.5093,VALID,6,VALID,0,
2010-12-11, 01:39:04,VALID,916.421,VALID,0,VALID,95.0335,VALID,0,VALID,19.4883,VALID,6,VALID,0,
2010-12-11, 01:40:04,VALID,916.418,VALID,0,VALID,95.0716,VALID,0,VALID,19.4883,VALID,6,VALID,0,
2010-12-11, 01:41:04,VALID,916.439,VALID,0,VALID,94.7133,VALID,0,VALID,19.4313,VALID,6,VALID,0,
2010-12-11, 01:42:04,VALID,916.389,VALID,0,VALID,94.1568,VALID,0,VALID,19.3338,VALID,6,VALID,0.366016,
2010-12-11, 01:43:04,VALID,916.405,VALID,0,VALID,94.7972,VALID,0,VALID,19.3323,VALID,6,VALID,0.551953,
2010-12-11, 01:44:04,VALID,916.393,VALID,0,VALID,95.0564,VALID,0,VALID,19.3128,VALID,6,VALID,0.666016,
2010-12-11, 01:45:04,VALID,916.382,VALID,0,VALID,95.0716,VALID,0,VALID,19.2738,VALID,6,VALID,0,
2010-12-11, 01:46:04,VALID,916.385,VALID,0,VALID,95.2165,VALID,0,VALID,19.2738,VALID,6,VALID,0,
2010-12-11, 01:47:04,VALID,916.332,VALID,0,VALID,95.3156,VALID,0,VALID,19.2948,VALID,6,VALID,0,
2010-12-11, 01:48:04,VALID,916.304,VALID,0,VALID,95.4452,VALID,0,VALID,19.2933,VALID,6,VALID,0,
2010-12-11, 01:49:04,VALID,916.297,VALID,0,VALID,95.5595,VALID,0,VALID,19.3533,VALID,6,VALID,0,
2010-12-11, 01:50:04,VALID,916.218,VALID,0,VALID,95.6281,VALID,0,VALID,19.3713,VALID,6,VALID,0,
2010-12-11, 01:51:04,VALID,916.239,VALID,0,VALID,95.6891,VALID,0,VALID,19.4118,VALID,6,VALID,0,
2010-12-11, 01:52:04,VALID,916.28,VALID,0,VALID,95.4452,VALID,0,VALID,19.3713,VALID,6,VALID,0,
2010-12-11, 01:53:04,VALID,916.285,VALID,0,VALID,94.8963,VALID,0,VALID,19.2933,VALID,6,VALID,0,
2010-12-11, 01:54:04,VALID,916.3,VALID,0,VALID,95.1707,VALID,0,VALID,19.3338,VALID,6,VALID,0,
2010-12-11, 01:55:04,VALID,916.313,VALID,0,VALID,95.1783,VALID,0,VALID,19.3338,VALID,6,VALID,0,
2010-12-11, 01:56:04,VALID,916.278,VALID,0,VALID,95.3308,VALID,0,VALID,19.2948,VALID,6,VALID,0,
2010-12-11, 01:57:04,VALID,916.285,VALID,0,VALID,95.5138,VALID,0,VALID,19.3338,VALID,330,VALID,0.887891,
2010-12-11, 01:58:04,VALID,916.287,VALID,0,VALID,95.7425,VALID,0,VALID,19.3923,VALID,328,VALID,0.523438,
2010-12-11, 01:59:04,VALID,916.251,VALID,0,VALID,95.59,VALID,0,VALID,19.3908,VALID,328,VALID,0.317969,
2010-12-11, 02:00:04,VALID,916.257,VALID,0,VALID,95.4757,VALID,0,VALID,19.3923,VALID,328,VALID,0.495703,
2010-12-11, 02:01:04,VALID,916.26,VALID,0,VALID,95.3461,VALID,0,VALID,19.3713,VALID,328,VALID,0.557813,
2010-12-11, 02:02:04,VALID,916.232,VALID,0,VALID,95.3156,VALID,0,VALID,19.3518,VALID,328,VALID,0.615234,
2010-12-11, 02:03:04,VALID,916.22,VALID,0,VALID,95.3003,VALID,0,VALID,19.3518,VALID,328,VALID,0.388281,
2010-12-11, 02:04:04,VALID,916.211,VALID,0,VALID,95.3003,VALID,0,VALID,19.3728,VALID,328,VALID,0.0078125,
2010-12-11, 02:05:04,VALID,916.207,VALID,0,VALID,95.3689,VALID,0,VALID,19.4118,VALID,328,VALID,0.08125,
2010-12-11, 02:06:04,VALID,916.194,VALID,0,VALID,95.4604,VALID,0,VALID,19.4508,VALID,328,VALID,1.05781,
2010-12-11, 02:07:04,VALID,916.196,VALID,0,VALID,95.2317,VALID,0,VALID,19.4703,VALID,328,VALID,0.0121094,
2010-12-11, 02:08:04,VALID,916.216,VALID,0,VALID,95.0716,VALID,0,VALID,19.4898,VALID,328,VALID,0.395703,
2010-12-11, 02:09:04,VALID,916.22,VALID,0,VALID,94.6905,VALID,0,VALID,19.4508,VALID,328,VALID,0.548828,
2010-12-11, 02:10:04,VALID,916.196,VALID,0,VALID,94.9268,VALID,0,VALID,19.4898,VALID,328,VALID,0.842578,
2010-12-11, 02:11:04,VALID,916.097,VALID,0,VALID,95.1174,VALID,0,VALID,19.4883,VALID,328,VALID,0.561719,
2010-12-11, 02:12:04,VALID,916.079,VALID,0,VALID,95.0259,VALID,0,VALID,19.5288,VALID,328,VALID,0.811328,
2010-12-11, 02:13:04,VALID,916.02,VALID,0,VALID,94.8963,VALID,0,VALID,19.5093,VALID,47,VALID,1.14102,
2010-12-11, 02:14:04,VALID,916.071,VALID,0,VALID,94.5761,VALID,0,VALID,19.4688,VALID,30,VALID,0.765625,
2010-12-11, 02:15:04,VALID,916.091,VALID,0,VALID,94.7819,VALID,0,VALID,19.4688,VALID,30,VALID,0.378516,
2010-12-11, 02:16:04,VALID,916.073,VALID,0,VALID,95.0564,VALID,0,VALID,19.4883,VALID,30,VALID,0.601563,
2010-12-11, 02:17:04,VALID,915.995,VALID,0,VALID,95.0564,VALID,0,VALID,19.5093,VALID,30,VALID,1.31641,
2010-12-11, 02:18:04,VALID,916.054,VALID,0,VALID,94.3474,VALID,0,VALID,19.5288,VALID,27,VALID,0.794141,
2010-12-11, 02:19:04,VALID,916.031,VALID,0,VALID,94.1873,VALID,0,VALID,19.5663,VALID,27,VALID,0.703125,
2010-12-11, 02:20:04,VALID,916.065,VALID,0,VALID,94.3245,VALID,0,VALID,19.5678,VALID,27,VALID,0.734766,
2010-12-11, 02:21:04,VALID,916.06,VALID,0,VALID,94.2254,VALID,0,VALID,19.5663,VALID,13,VALID,0.382422,
2010-12-11, 02:22:04,VALID,916.014,VALID,0,VALID,94.4694,VALID,0,VALID,19.5663,VALID,314,VALID,0.778125,
2010-12-11, 02:23:04,VALID,915.941,VALID,0,VALID,94.1873,VALID,0,VALID,19.5273,VALID,314,VALID,0.666797,
2010-12-11, 02:24:04,VALID,915.918,VALID,0,VALID,94.2712,VALID,0,VALID,19.5288,VALID,39,VALID,0.408984,
2010-12-11, 02:25:04,VALID,915.918,VALID,0,VALID,94.5075,VALID,0,VALID,19.5078,VALID,39,VALID,0.495313,
2010-12-11, 02:26:04,VALID,915.956,VALID,0,VALID,94.5609,VALID,0,VALID,19.5078,VALID,39,VALID,0.43125,
2010-12-11, 02:27:04,VALID,915.961,VALID,0,VALID,94.4922,VALID,0,VALID,19.4898,VALID,39,VALID,0,
2010-12-11, 02:28:04,VALID,915.904,VALID,0,VALID,94.5532,VALID,0,VALID,19.4493,VALID,39,VALID,0,
2010-12-11, 02:29:04,VALID,915.807,VALID,0,VALID,94.294,VALID,0,VALID,19.3713,VALID,39,VALID,1.23086,
2010-12-11, 02:30:04,VALID,915.769,VALID,0,VALID,94.8429,VALID,0,VALID,19.3923,VALID,39,VALID,1.19062,
2010-12-11, 02:31:04,VALID,915.778,VALID,0,VALID,94.599,VALID,0,VALID,19.3143,VALID,70,VALID,0.172266,
2010-12-11, 02:32:04,VALID,915.807,VALID,0,VALID,94.2483,VALID,0,VALID,19.2348,VALID,70,VALID,0,
2010-12-11, 02:33:04,VALID,915.762,VALID,0,VALID,94.5761,VALID,0,VALID,19.2348,VALID,70,VALID,0.223438,
2010-12-11, 02:34:04,VALID,915.725,VALID,0,VALID,94.8582,VALID,0,VALID,19.2153,VALID,14,VALID,1.41992,
2010-12-11, 02:35:04,VALID,915.741,VALID,0,VALID,95.2851,VALID,0,VALID,19.2738,VALID,17,VALID,0.990625,
2010-12-11, 02:36:04,VALID,915.725,VALID,0,VALID,95.3842,VALID,0,VALID,19.2948,VALID,23,VALID,0.899219,
2010-12-11, 02:37:04,VALID,915.804,VALID,0,VALID,95.3461,VALID,0,VALID,19.2753,VALID,14,VALID,0.833984,
2010-12-11, 02:38:04,VALID,915.777,VALID,0,VALID,95.5443,VALID,0,VALID,19.2948,VALID,359,VALID,0.866797,
2010-12-11, 02:39:04,VALID,915.744,VALID,0,VALID,95.6281,VALID,0,VALID,19.2933,VALID,359,VALID,1.02188,
2010-12-11, 02:40:04,VALID,915.747,VALID,0,VALID,95.5595,VALID,0,VALID,19.2558,VALID,359,VALID,0.835156,
2010-12-11, 02:41:04,VALID,915.668,VALID,0,VALID,95.8645,VALID,0,VALID,19.2738,VALID,359,VALID,1.10898,
2010-12-11, 02:42:04,VALID,915.633,VALID,0,VALID,95.8263,VALID,0,VALID,19.2543,VALID,359,VALID,0.812109,
2010-12-11, 02:43:04,VALID,915.608,VALID,0,VALID,95.9636,VALID,0,VALID,19.2363,VALID,359,VALID,0.263281,
2010-12-11, 02:44:04,VALID,915.552,VALID,0,VALID,96.0169,VALID,0,VALID,19.2558,VALID,359,VALID,0.235547,
2010-12-11, 02:45:04,VALID,915.567,VALID,0,VALID,96.1846,VALID,0,VALID,19.2738,VALID,359,VALID,0.732031,
2010-12-11, 02:46:04,VALID,915.614,VALID,0,VALID,96.2685,VALID,0,VALID,19.3128,VALID,359,VALID,0.308984,
2010-12-11, 02:47:04,VALID,915.617,VALID,0,VALID,96.2761,VALID,0,VALID,19.2933,VALID,359,VALID,0,
2010-12-11, 02:48:04,VALID,915.608,VALID,0,VALID,96.0855,VALID,0,VALID,19.2348,VALID,359,VALID,0.197266,
2010-12-11, 02:49:04,VALID,915.564,VALID,0,VALID,96.36,VALID,0,VALID,19.2933,VALID,356,VALID,1.38828,
2010-12-11, 02:50:04,VALID,915.543,VALID,0,VALID,96.3066,VALID,0,VALID,19.3143,VALID,32,VALID,1.49063,
2010-12-11, 02:51:04,VALID,915.587,VALID,0,VALID,96.2456,VALID,0,VALID,19.2348,VALID,20,VALID,0.757813,
2010-12-11, 02:52:04,VALID,915.612,VALID,0,VALID,96.4667,VALID,0,VALID,19.2738,VALID,319,VALID,1.30352,
2010-12-11, 02:53:04,VALID,915.575,VALID,0,VALID,96.5124,VALID,0,VALID,19.3128,VALID,325,VALID,0.930078,
2010-12-11, 02:54:04,VALID,915.535,VALID,0,VALID,96.5734,VALID,0,VALID,19.3728,VALID,325,VALID,0.392578,
2010-12-11, 02:55:04,VALID,915.507,VALID,0,VALID,96.3829,VALID,0,VALID,19.3128,VALID,325,VALID,0.859375,
2010-12-11, 02:56:04,VALID,915.456,VALID,0,VALID,96.3371,VALID,0,VALID,19.2558,VALID,325,VALID,0.804297,
2010-12-11, 02:57:04,VALID,915.483,VALID,0,VALID,96.3829,VALID,0,VALID,19.2153,VALID,2,VALID,0.873047,
2010-12-11, 02:58:04,VALID,915.509,VALID,0,VALID,96.5201,VALID,0,VALID,19.2543,VALID,2,VALID,0.766406,
2010-12-11, 02:59:05,VALID,915.522,VALID,0,VALID,96.5658,VALID,0,VALID,19.2543,VALID,2,VALID,0.73125,
2010-12-11, 03:00:05,VALID,915.522,VALID,0,VALID,96.6039,VALID,0,VALID,19.2753,VALID,2,VALID,0.640625,
2010-12-11, 03:01:05,VALID,915.54,VALID,0,VALID,96.6497,VALID,0,VALID,19.2933,VALID,2,VALID,0.755859,
2010-12-11, 03:02:05,VALID,915.487,VALID,0,VALID,96.6268,VALID,0,VALID,19.2948,VALID,2,VALID,1.03281,
2010-12-11, 03:03:05,VALID,915.497,VALID,0,VALID,96.5429,VALID,0,VALID,19.2348,VALID,2,VALID,0.902734,
2010-12-11, 03:04:05,VALID,915.486,VALID,0,VALID,96.6039,VALID,0,VALID,19.2153,VALID,2,VALID,1.45117,
2010-12-11, 03:05:05,VALID,915.526,VALID,0,VALID,96.6192,VALID,0,VALID,19.1958,VALID,2,VALID,0.84375,
2010-12-11, 03:06:05,VALID,915.553,VALID,0,VALID,96.6878,VALID,0,VALID,19.2348,VALID,2,VALID,0.817187,
2010-12-11, 03:07:05,VALID,915.529,VALID,0,VALID,96.7259,VALID,0,VALID,19.2348,VALID,2,VALID,0.00195313,
2010-12-11, 03:08:05,VALID,915.562,VALID,0,VALID,96.7564,VALID,0,VALID,19.2738,VALID,2,VALID,0.226172,
2010-12-11, 03:09:05,VALID,915.56,VALID,0,VALID,96.7335,VALID,0,VALID,19.2948,VALID,2,VALID,0,
2010-12-11, 03:10:05,VALID,915.536,VALID,0,VALID,96.7411,VALID,0,VALID,19.2543,VALID,2,VALID,0.524609,
2010-12-11, 03:11:05,VALID,915.52,VALID,0,VALID,96.703,VALID,0,VALID,19.2348,VALID,2,VALID,0.961719,
2010-12-11, 03:12:05,VALID,915.549,VALID,0,VALID,96.6649,VALID,0,VALID,19.1763,VALID,2,VALID,1.26602,
2010-12-11, 03:13:05,VALID,915.575,VALID,0,VALID,96.6192,VALID,0,VALID,19.1373,VALID,2,VALID,0.805859,
2010-12-11, 03:14:05,VALID,915.618,VALID,0,VALID,96.825,VALID,0,VALID,19.1763,VALID,320,VALID,0.685156,
2010-12-11, 03:15:05,VALID,915.604,VALID,0,VALID,96.8479,VALID,0,VALID,19.2153,VALID,320,VALID,0,
2010-12-11, 03:16:05,VALID,915.57,VALID,0,VALID,96.7945,VALID,0,VALID,19.2153,VALID,320,VALID,0.025,
2010-12-11, 03:17:05,VALID,915.562,VALID,0,VALID,96.8784,VALID,0,VALID,19.2738,VALID,321,VALID,0.627734,
2010-12-11, 03:18:05,VALID,915.545,VALID,0,VALID,96.8479,VALID,0,VALID,19.2933,VALID,321,VALID,0.455078,
2010-12-11, 03:19:05,VALID,915.518,VALID,0,VALID,96.7259,VALID,0,VALID,19.1958,VALID,321,VALID,1.21016,
2010-12-11, 03:20:05,VALID,915.546,VALID,0,VALID,96.8326,VALID,0,VALID,19.2348,VALID,9,VALID,0.802734,
2010-12-11, 03:21:05,VALID,915.5,VALID,0,VALID,96.9241,VALID,0,VALID,19.2738,VALID,9,VALID,0.614062,
2010-12-11, 03:22:05,VALID,915.471,VALID,0,VALID,96.9165,VALID,0,VALID,19.2933,VALID,339,VALID,1.44766,
2010-12-11, 03:23:05,VALID,915.49,VALID,0,VALID,96.8631,VALID,0,VALID,19.3143,VALID,1,VALID,0.698438,
2010-12-11, 03:24:05,VALID,915.487,VALID,0,VALID,96.8631,VALID,0,VALID,19.2543,VALID,1,VALID,0.524609,
2010-12-11, 03:25:05,VALID,915.502,VALID,0,VALID,96.8707,VALID,0,VALID,19.2933,VALID,1,VALID,0,
2010-12-11, 03:26:05,VALID,915.522,VALID,0,VALID,96.825,VALID,0,VALID,19.2753,VALID,1,VALID,0.39375,
2010-12-11, 03:27:05,VALID,915.479,VALID,0,VALID,96.8174,VALID,0,VALID,19.2543,VALID,1,VALID,0.892969,
2010-12-11, 03:28:05,VALID,915.471,VALID,0,VALID,96.7564,VALID,0,VALID,19.1763,VALID,1,VALID,0.987109,
2010-12-11, 03:29:05,VALID,915.398,VALID,0,VALID,96.6649,VALID,0,VALID,19.1178,VALID,1,VALID,1.14727,
2010-12-11, 03:30:05,VALID,915.414,VALID,0,VALID,96.8174,VALID,0,VALID,19.1568,VALID,1,VALID,0.433984,
2010-12-11, 03:31:05,VALID,915.407,VALID,0,VALID,96.8021,VALID,0,VALID,19.1778,VALID,1,VALID,0.316406,
2010-12-11, 03:32:05,VALID,915.455,VALID,0,VALID,96.7716,VALID,0,VALID,19.1568,VALID,1,VALID,0.104687,
2010-12-11, 03:33:05,VALID,915.418,VALID,0,VALID,96.6725,VALID,0,VALID,19.1388,VALID,1,VALID,0.877344,
2010-12-11, 03:34:05,VALID,915.394,VALID,0,VALID,96.6497,VALID,0,VALID,19.0593,VALID,1,VALID,0.724219,
2010-12-11, 03:35:05,VALID,915.383,VALID,0,VALID,96.6573,VALID,0,VALID,19.0593,VALID,1,VALID,1.08242,
2010-12-11, 03:36:05,VALID,915.41,VALID,0,VALID,96.6039,VALID,0,VALID,19.0203,VALID,1,VALID,0.727734,
2010-12-11, 03:37:05,VALID,915.421,VALID,0,VALID,96.6573,VALID,0,VALID,18.9814,VALID,1,VALID,0.189844,
2010-12-11, 03:38:05,VALID,915.443,VALID,0,VALID,96.6649,VALID,0,VALID,18.9214,VALID,1,VALID,0.433203,
2010-12-11, 03:39:05,VALID,915.425,VALID,0,VALID,96.7411,VALID,0,VALID,19.0023,VALID,1,VALID,0.899219,
2010-12-11, 03:40:05,VALID,915.387,VALID,0,VALID,96.7107,VALID,0,VALID,18.9814,VALID,1,VALID,0.649609,
2010-12-11, 03:41:05,VALID,915.39,VALID,0,VALID,96.6954,VALID,0,VALID,18.9814,VALID,1,VALID,0.796484,
2010-12-11, 03:42:05,VALID,915.351,VALID,0,VALID,96.6725,VALID,0,VALID,18.9619,VALID,1,VALID,0.393359,
2010-12-11, 03:43:05,VALID,915.367,VALID,0,VALID,96.642,VALID,0,VALID,18.9034,VALID,1,VALID,0.979688,
2010-12-11, 03:44:05,VALID,915.345,VALID,0,VALID,96.7259,VALID,0,VALID,18.9034,VALID,1,VALID,0.962109,
2010-12-11, 03:45:05,VALID,915.368,VALID,0,VALID,96.764,VALID,0,VALID,18.8839,VALID,1,VALID,1.10742,
2010-12-11, 03:46:05,VALID,915.375,VALID,0,VALID,96.8326,VALID,0,VALID,18.9424,VALID,7,VALID,1.28125,
2010-12-11, 03:47:05,VALID,915.381,VALID,0,VALID,96.8326,VALID,0,VALID,18.9619,VALID,13,VALID,1.49805,
2010-12-11, 03:48:05,VALID,915.42,VALID,0,VALID,96.8479,VALID,0,VALID,18.9814,VALID,13,VALID,0.857813,